GFSMA_925_temp_000.txt.gz
Temp
23 23 23 23 23 22 22 22 21 21 21 22 22 21 21 21 21 21 22 23 23 22 22 21 21 21 20 19 19 19 20 19 19 19 19 19 19 19 19 19 19 19 19
23 23 23 22 22 22 22 21 21 21 21 21 21 21 21 21 21 21 22 22 22 22 22 22 21 21 21 20 20 20 20 20 19 19 19 20 19 19 19 19 19 19 19
23 23 23 23 22 22 21 21 21 20 20 20 21 21 21 21 21 21 21 21 22 22 22 22 22 21 21 21 21 20 20 20 20 20 20 19 19 19 19 19 20 20 19
23 23 23 23 22 22 21 21 20 21 21 20 20 20 20 21 20 20 21 21 21 21 22 22 22 22 21 21 21 21 20 20 20 20 20 20 20 20 20 20 20 20 20
23 23 23 22 22 21 21 20 20 20 20 20 20 20 21 20 20 21 21 21 21 21 22 22 22 22 22 21 21 21 21 20 20 21 21 20 20 20 20 20 20 20 20
23 23 23 22 21 21 20 20 20 20 20 19 20 20 20 20 21 21 21 21 21 21 21 22 22 22 21 21 21 21 21 20 21 21 20 21 20 20 20 20 20 20 21
22 23 22 22 21 21 20 20 20 20 20 19 19 20 21 20 21 21 20 20 21 21 20 20 21 21 21 21 21 21 21 21 21 21 21 20 20 21 21 20 20 20 21
22 22 22 21 21 20 20 20 20 20 19 19 18 16 17 20 20 20 20 20 21 21 21 20 20 20 20 20 21 21 21 21 21 21 21 21 21 20 21 21 21 20 21
22 22 21 21 21 21 21 20 20 19 19 19 18 18 17 18 16 20 20 20 20 20 20 20 20 20 20 20 20 20 20 20 20 21 21 21 21 21 21 21 20 21 21
22 22 22 21 20 20 20 20 19 19 19 19 18 18 18 17 17 17 20 20 20 20 20 20 19 19 19 19 19 20 19 20 20 20 20 20 20 20 20 21 21 20 20
21 22 21 21 21 20 20 20 19 19 19 18 18 18 18 17 16 15 16 17 20 20 20 20 19 19 19 19 19 19 19 19 19 18 19 19 20 20 20 20 21 21 20
22 22 21 21 21 20 20 20 19 19 19 19 18 18 18 18 17 16 16 15 15 19 19 19 19 19 18 18 18 18 18 18 18 18 18 18 19 19 19 20 20 20 21
22 22 21 21 20 20 20 20 20 20 20 19 19 19 19 19 18 17 16 15 15 17 18 18 19 18 18 18 18 18 18 18 18 18 18 18 18 19 19 19 20 20 20
22 22 21 21 21 21 20 20 20 20 20 20 19 19 19 19 18 18 17 15 14 13 15 17 18 18 17 17 17 17 17 17 18 18 18 18 18 18 19 19 19 20 20
22 21 21 21 21 20 20 20 20 20 20 20 20 20 19 19 19 18 17 17 16 15 15 17 17 17 17 17 17 17 17 17 17 17 18 18 17 17 18 18 19 19 20
22 21 21 20 20 20 20 20 20 20 20 20 20 20 19 19 19 18 18 17 16 15 14 15 16 16 17 17 17 17 16 17 17 18 17 17 17 17 17 17 19 19 19
22 22 21 21 20 20 20 20 20 20 20 20 20 19 19 19 19 18 17 17 16 15 13 15 14 16 16 16 16 17 16 16 16 17 17 17 16 16 16 16 17 18 19
22 22 21 21 20 20 20 20 20 20 20 20 20 20 20 19 18 18 17 17 16 16 14 14 15 14 15 16 16 16 16 15 15 15 15 14 14 15 16 16 17 17 18
22 21 21 21 20 20 20 20 20 21 20 20 20 20 20 19 19 19 18 17 17 16 15 13 13 14 13 14 14 15 15 14 14 14 14 14 14 14 14 15 16 17 18
22 22 21 21 21 21 21 21 21 21 21 21 20 20 20 19 19 19 18 18 18 16 15 13 13 13 13 14 13 13 13 14 13 14 14 13 14 14 14 15 16 17 18
22 22 21 21 21 21 21 21 21 21 21 21 21 20 20 19 19 18 18 18 17 16 15 13 13 14 14 14 14 14 13 13 13 13 14 14 14 14 14 14 15 17 18
22 22 21 21 21 21 21 21 21 21 21 21 20 20 20 19 19 18 17 17 17 16 15 13 14 13 14 13 13 12 13 13 14 14 14 13 13 13 13 14 15 16 18
22 22 21 21 21 21 21 21 21 20 20 20 20 19 19 19 18 18 18 17 17 16 15 14 13 13 13 13 12 12 12 12 12 13 12 12 12 13 13 14 15 15 16
21 21 21 21 21 21 22 21 20 21 20 20 19 18 18 18 18 16 16 16 16 16 15 14 13 13 13 12 11 11 11 11 11 11 12 12 12 13 13 13 14 15 16
20 20 21 21 21 22 22 21 20 20 19 19 19 17 17 17 16 16 15 14 15 15 15 14 13 13 13 13 13 11 11 11 11 12 12 12 12 12 13 14 14 15 16
19 18 18 18 17 16 20 19 19 19 19 18 18 17 16 15 15 15 14 13 13 14 13 13 13 11 10 11 13 11 11 11 11 11 12 12 12 12 13 14 14 14 16

GFSMA_925_temp_003.txt.gz
Temp
23 23 23 22 22 22 21 21 21 21 21 21 21 20 21 20 20 21 21 22 22 22 22 21 21 20 20 20 20 19 19 19 20 19 19 19 19 19 19 19 19 19 19
23 23 23 23 22 22 21 21 20 20 20 20 21 20 20 20 19 19 21 21 22 22 22 22 22 21 20 20 20 20 20 20 20 20 20 20 19 19 19 19 19 19 20
23 23 23 23 22 22 22 20 20 20 20 20 20 21 20 20 20 19 20 20 21 22 22 22 22 21 21 20 20 21 20 20 20 20 20 20 20 20 20 20 19 19 20
23 23 23 22 23 22 21 20 20 20 20 20 20 20 20 20 20 20 20 20 20 21 22 22 22 22 21 21 20 20 20 20 21 20 20 20 20 20 20 20 20 20 20
23 23 23 22 22 21 21 20 20 20 21 21 21 21 20 20 20 21 20 20 20 21 22 22 22 22 22 21 21 20 20 20 21 20 21 20 20 20 20 20 20 20 20
23 23 23 23 22 21 20 20 19 19 20 20 20 21 20 20 21 21 21 21 21 21 21 20 21 22 21 21 21 21 21 21 20 20 21 20 20 20 20 20 20 21 20
23 22 22 22 21 20 20 19 19 19 21 19 20 22 21 20 21 20 21 21 20 20 20 19 20 20 21 21 21 21 21 21 21 21 21 21 20 20 20 21 21 20 21
22 22 22 21 21 20 19 19 19 20 20 19 20 19 23 22 21 21 21 21 19 20 20 20 19 19 19 20 19 20 20 20 20 20 20 20 21 21 20 20 21 21 21
23 22 22 21 20 20 21 19 19 19 21 19 18 20 23 23 22 21 21 21 20 20 19 19 19 18 18 19 19 19 20 20 20 20 20 20 20 20 20 20 20 20 21
22 22 22 22 21 20 20 20 19 19 19 20 19 18 18 19 22 23 22 21 20 20 19 20 19 18 18 18 18 18 19 19 19 19 19 19 20 19 20 20 20 20 20
22 22 22 22 21 20 20 20 19 19 19 19 20 20 19 19 18 20 22 22 21 20 20 19 19 19 18 18 18 18 18 18 18 18 19 19 19 19 19 19 19 20 20
21 22 22 22 21 21 20 20 19 19 19 19 19 19 20 21 21 21 21 21 20 20 19 19 19 19 18 18 18 18 18 18 18 18 18 18 19 19 19 18 19 19 20
21 22 22 22 21 21 20 20 20 19 19 19 19 20 19 19 19 19 20 21 20 20 20 19 19 19 18 18 18 18 18 19 18 18 18 18 18 19 19 19 19 19 19
22 22 22 22 21 21 20 20 19 20 19 20 19 19 20 19 19 19 19 20 21 21 20 18 19 18 18 18 17 18 18 18 18 19 19 18 18 18 18 18 19 19 19
22 23 22 22 21 21 20 20 20 20 20 19 19 19 19 20 19 19 18 18 19 20 22 21 19 19 17 17 17 16 17 17 18 18 18 18 18 18 17 17 18 18 19
22 22 22 21 21 21 21 20 20 20 19 20 20 19 19 20 19 19 18 18 17 18 20 20 19 18 17 17 16 16 16 17 17 17 18 18 18 18 17 17 16 17 18
23 22 22 21 20 20 20 20 20 20 19 19 19 19 19 20 19 19 19 18 18 17 18 19 19 18 16 16 16 16 16 16 17 17 16 16 16 17 17 17 16 16 17
22 22 22 21 21 20 20 19 19 20 20 20 20 19 19 19 18 18 19 18 18 18 17 18 18 18 18 17 16 16 16 16 16 17 16 16 15 16 16 16 16 16 16
22 22 21 21 21 20 20 19 20 20 19 19 19 19 19 19 19 19 18 18 18 17 17 16 17 18 18 17 17 17 16 16 16 16 16 16 16 15 15 15 15 15 16
22 22 22 21 21 20 20 20 20 20 20 20 20 19 19 20 19 19 18 18 17 17 18 17 17 18 18 18 17 17 18 18 17 17 16 16 16 16 16 16 16 15 15
19 19 22 22 21 21 21 21 20 20 20 20 20 20 20 20 20 19 18 18 17 18 18 18 18 19 19 19 19 18 17 17 17 17 17 17 17 17 16 16 16 16 16
19 19 20 21 21 21 21 21 21 20 20 20 20 21 20 20 20 19 19 18 18 16 17 17 18 18 18 17 17 17 17 17 18 17 16 16 16 16 16 16 15 15 15
20 17 19 20 21 21 21 21 21 21 20 20 21 21 20 19 19 17 18 18 17 17 16 15 15 15 16 16 15 15 15 15 14 15 15 15 16 15 15 14 14 14 14
17 17 17 18 21 20 21 20 19 19 19 20 20 20 18 18 17 17 16 16 16 16 15 15 15 15 14 14 13 13 12 12 13 14 15 16 15 15 14 13 14 14 14
17 17 17 19 18 19 20 20 20 19 18 17 19 18 17 17 17 17 15 15 15 15 15 14 14 14 14 14 12 11 12 13 14 15 15 13 13 12 12 13 13 14 14
17 17 17 19 20 20 21 20 22 20 18 17 18 17 17 16 16 16 15 14 15 15 13 13 13 13 12 12 11 11 11 11 12 13 13 12 11 11 12 13 14 15 16

GFSMA_925_temp_006.txt.gz
Temp
24 24 23 23 23 24 25 24 24 24 23 24 24 23 24 24 23 24 24 23 22 22 22 21 21 20 20 20 20 20 20 20 20 20 20 19 19 19 19 19 19 19 19
24 24 24 24 24 24 24 24 23 23 23 24 24 23 23 24 23 23 24 24 22 22 22 22 21 21 20 20 20 20 20 20 20 20 20 20 20 20 20 20 19 19 19
23 23 24 24 24 23 22 23 23 23 24 24 24 24 24 24 24 23 23 24 24 23 22 22 22 22 21 20 20 20 21 21 20 20 20 21 20 20 19 20 20 20 20
23 23 24 24 24 23 23 24 24 24 25 24 24 24 24 24 23 23 24 23 24 25 24 23 22 22 22 21 21 21 21 21 20 20 20 20 20 20 20 20 20 20 20
23 23 24 24 23 23 21 22 24 23 24 24 25 25 24 24 24 25 24 23 23 24 25 23 23 22 22 21 21 21 21 21 21 20 20 20 20 20 20 20 20 20 21
23 22 23 23 22 22 23 23 22 23 23 23 24 24 24 24 24 24 24 24 23 24 24 23 24 24 22 21 21 21 21 21 21 21 21 20 20 20 20 20 20 21 21
23 23 24 23 22 23 23 22 23 23 23 24 23 25 24 23 24 24 24 24 23 24 23 22 23 23 23 22 21 21 20 20 20 20 20 21 20 20 20 20 20 20 20
23 23 23 23 23 24 22 22 22 23 24 23 24 24 27 26 25 24 23 23 22 23 23 22 21 21 22 22 20 20 20 20 20 20 20 20 20 20 20 20 20 20 20
23 22 22 23 22 22 24 22 22 22 24 23 22 23 26 27 26 24 23 23 22 23 23 22 21 20 20 21 21 20 20 20 20 20 20 19 20 20 20 20 20 20 20
24 23 22 22 22 23 22 22 22 22 21 24 23 22 21 22 26 26 25 24 23 23 21 23 22 21 20 21 20 19 19 19 19 19 19 19 19 19 19 20 20 20 20
23 23 22 22 22 22 22 21 21 21 22 22 23 23 23 23 22 24 25 25 24 23 22 22 22 22 21 20 21 19 19 19 19 19 19 19 19 19 19 19 19 20 20
24 23 22 22 22 22 21 21 21 20 21 21 22 22 23 24 24 24 25 24 24 24 23 22 22 22 22 21 20 19 19 19 19 19 19 19 19 19 19 19 19 19 19
26 24 22 22 22 21 21 21 20 21 21 21 21 23 23 23 23 23 23 24 24 24 23 22 22 21 21 21 21 19 18 18 18 19 19 19 19 19 19 19 19 19 18
26 25 22 22 22 22 21 21 21 21 21 21 21 21 22 23 23 23 23 23 24 24 24 23 22 22 21 21 20 19 19 19 18 18 18 18 18 18 18 18 18 19 19
26 24 22 22 22 22 21 21 21 21 21 21 21 21 21 23 23 23 23 22 22 23 25 24 23 22 21 21 20 19 19 18 18 18 18 18 18 18 18 18 18 18 18
24 23 22 22 22 21 21 20 22 21 21 21 22 22 21 22 23 23 22 22 22 22 23 23 23 22 21 20 19 18 18 18 18 18 18 18 18 18 18 18 17 17 17
22 22 22 22 22 21 21 20 21 22 21 21 21 21 21 21 21 22 23 22 22 22 22 22 22 22 21 20 19 19 19 19 19 19 18 17 17 17 17 17 17 17 17
22 21 21 21 21 22 21 21 21 22 21 21 21 21 21 22 21 21 21 21 22 21 21 21 20 20 21 21 20 19 19 19 19 19 18 18 17 17 17 17 16 17 17
23 22 23 22 20 21 21 21 21 21 21 21 21 21 21 21 21 21 21 21 22 22 21 21 21 21 21 20 21 20 20 20 19 20 19 19 18 18 17 17 17 17 17
23 22 24 22 21 20 21 21 21 21 21 21 21 21 21 21 21 21 21 20 20 20 21 20 21 21 21 21 21 20 21 21 21 21 20 19 19 19 18 18 18 18 17
22 24 24 22 21 20 20 21 21 21 21 21 21 21 21 21 21 21 21 21 20 20 21 21 21 22 21 20 20 20 20 21 20 20 20 20 20 20 20 19 19 19 18
22 23 23 21 19 19 21 22 21 21 21 21 21 21 20 20 20 20 20 19 18 18 18 19 19 20 19 18 20 20 19 19 20 19 19 19 19 19 19 19 19 18 17
19 20 20 19 19 19 21 21 21 21 21 21 20 20 19 20 20 19 19 18 18 18 17 16 17 18 17 18 18 16 17 17 17 18 17 17 18 19 19 19 18 17 16
20 20 19 19 19 20 20 20 20 19 20 20 19 19 19 18 19 19 18 19 18 18 18 17 17 17 17 16 15 15 15 15 15 16 17 18 19 19 18 17 16 14 13
20 21 20 20 19 20 20 20 19 21 21 19 20 20 21 20 17 18 16 17 18 18 18 17 15 14 14 14 13 13 15 16 16 15 16 18 18 17 15 14 13 13 13
20 21 21 20 20 20 20 20 21 21 20 19 19 19 19 18 17 16 16 17 17 18 17 16 16 16 16 16 15 14 13 13 13 16 18 17 16 13 12 12 13 13 13

GFSMA_925_temp_009.txt.gz
Temp
27 25 25 25 26 26 26 26 25 26 25 25 25 25 25 26 26 26 26 24 24 23 22 21 22 21 21 20 20 20 20 19 20 20 19 19 19 19 19 20 20 19 19
25 25 25 25 25 26 25 25 24 24 24 25 26 25 25 26 25 25 26 24 24 23 23 22 21 22 21 21 20 20 20 20 20 20 20 20 20 20 19 20 20 20 20
25 24 26 26 26 25 24 24 24 25 25 27 27 26 26 26 26 24 25 26 24 24 24 23 22 22 21 21 21 21 21 21 20 20 20 20 20 20 20 20 20 20 20
24 24 26 25 26 25 25 25 24 23 26 27 26 26 26 26 25 25 25 25 26 26 24 23 23 22 22 22 21 21 21 21 21 21 20 20 20 20 21 20 20 20 20
24 24 26 26 25 25 24 24 24 25 26 26 26 27 26 26 26 26 25 25 25 26 26 24 23 23 22 21 21 21 21 21 21 21 21 21 20 20 20 20 20 20 20
24 24 25 24 24 25 24 23 23 25 24 25 25 26 26 26 25 26 26 26 25 25 25 24 24 23 23 22 21 21 21 21 21 21 21 21 21 21 21 20 20 20 20
25 23 24 24 24 25 24 24 24 25 25 25 25 27 26 25 26 26 26 25 25 25 24 24 24 24 22 22 21 21 20 20 21 21 21 20 20 20 20 20 21 20 20
25 24 24 26 25 25 25 23 23 24 26 25 25 26 28 26 26 26 25 25 24 25 24 23 23 22 22 21 21 20 20 20 20 20 20 20 20 20 20 20 20 20 20
25 24 24 24 24 24 26 23 23 23 25 25 24 25 27 27 26 26 24 25 24 24 24 24 23 22 22 22 21 20 20 20 20 20 20 20 20 20 20 20 20 20 20
25 25 24 24 23 24 24 24 23 22 23 25 25 24 23 23 26 27 26 25 24 24 23 24 24 23 22 23 21 20 20 20 21 20 20 20 20 20 20 20 20 20 20
26 26 24 24 23 23 23 22 23 22 23 24 25 25 24 24 24 25 26 27 26 25 24 24 23 23 23 22 22 20 20 20 20 19 19 19 20 20 20 20 20 20 20
26 25 24 23 23 23 23 22 22 22 22 22 23 24 25 25 26 26 26 26 26 26 25 24 24 23 23 23 22 21 20 19 19 19 19 19 19 19 19 19 20 20 20
28 25 24 23 23 22 23 22 22 22 22 22 22 24 25 25 25 25 25 25 26 25 25 24 24 23 23 22 22 21 19 19 19 19 19 19 19 19 19 19 19 19 19
28 26 24 24 23 23 22 22 22 22 22 22 22 22 23 24 24 25 25 24 22 22 24 24 23 23 23 22 22 21 20 20 19 19 19 18 18 18 19 19 19 19 19
28 26 24 24 23 23 23 22 22 22 22 22 22 22 22 23 24 24 24 24 23 21 23 24 25 23 23 22 22 21 20 20 19 18 18 18 18 18 18 18 18 18 18
27 26 24 23 23 23 22 22 22 22 22 22 22 23 22 23 23 24 23 24 24 24 24 24 24 24 23 22 22 21 20 20 19 20 19 19 19 18 18 18 18 18 18
26 25 24 24 23 23 22 21 22 22 22 22 21 22 22 22 22 23 24 24 24 24 23 23 23 23 21 21 21 21 20 21 20 21 20 19 19 19 19 18 18 17 17
25 24 23 23 23 22 22 22 21 22 22 22 22 21 22 22 21 21 22 23 23 22 22 22 22 22 22 22 21 21 21 21 21 21 21 20 20 20 19 19 18 18 18
24 24 23 22 22 22 22 22 22 21 22 22 22 22 22 22 22 22 22 22 22 22 22 22 22 22 21 21 21 21 21 20 20 21 21 21 20 20 19 19 19 19 18
24 23 23 21 21 22 22 22 22 21 22 22 22 22 22 22 21 21 21 21 21 21 22 22 22 21 21 21 21 22 20 20 20 21 22 22 22 21 21 20 20 20 19
23 22 22 21 21 22 22 22 22 22 21 22 22 22 21 21 21 21 21 21 21 21 22 22 22 22 22 22 20 20 20 20 20 21 21 21 21 21 21 21 21 20 20
23 22 22 21 21 22 23 23 22 22 22 22 21 21 22 22 21 21 21 20 19 19 18 19 20 20 20 19 19 18 18 19 20 20 20 20 19 20 19 20 20 21 20
22 22 21 20 20 21 21 21 21 22 22 22 21 21 21 22 21 20 19 19 19 19 18 18 18 18 17 17 17 17 18 17 17 18 17 18 18 19 19 20 20 20 19
21 21 20 21 21 21 21 21 21 21 22 22 22 21 21 21 20 19 19 19 18 19 19 18 18 17 17 17 16 16 15 15 16 17 18 18 18 19 19 20 19 18 17
21 21 20 21 21 21 21 20 20 21 20 21 21 21 21 19 19 19 19 19 18 18 18 19 18 17 17 16 16 15 16 18 18 18 16 17 18 18 19 18 17 16 16
21 21 21 21 21 21 21 20 20 20 20 21 21 20 19 19 18 18 18 17 18 18 19 19 18 17 17 17 17 16 16 17 17 17 18 18 18 17 17 15 15 13 12

GFSMA_925_temp_015.txt.gz
Temp
25 25 25 25 25 24 24 24 24 25 25 25 25 25 26 26 25 24 24 24 23 23 23 22 21 20 20 20 20 20 19 20 20 20 19 20 20 19 19 19 19 19 19
25 25 25 25 24 25 24 25 25 25 25 25 25 25 26 25 25 25 24 24 24 23 23 23 22 21 21 20 20 20 20 20 20 20 20 20 20 20 19 20 20 19 19
26 25 25 24 25 25 25 24 25 24 25 25 26 26 26 26 25 25 24 25 24 24 23 23 22 22 22 21 20 20 20 20 20 20 20 20 20 20 20 20 20 20 20
25 25 25 24 24 24 25 24 24 24 24 25 26 26 26 26 26 25 25 25 24 24 23 23 23 22 22 22 21 21 21 21 20 20 20 20 20 20 20 20 20 20 19
26 25 25 25 24 24 24 24 24 24 24 25 26 25 26 26 26 25 25 25 24 25 23 23 23 22 22 21 21 21 21 21 21 20 20 20 20 20 20 20 20 20 20
25 25 25 24 24 24 24 24 24 24 25 24 25 25 25 25 26 25 25 25 24 24 23 23 22 22 22 21 21 21 21 21 21 20 20 21 20 20 20 20 20 20 20
25 25 24 24 24 24 24 24 24 24 24 24 25 25 25 25 25 25 25 25 24 23 23 22 22 21 21 21 21 21 21 21 21 21 21 21 21 21 20 20 20 20 20
25 25 25 24 24 24 23 24 24 23 24 25 25 23 21 24 25 25 25 25 24 24 23 23 23 21 21 21 21 21 21 20 20 20 20 20 20 20 20 20 20 20 20
26 25 24 24 24 24 23 23 23 23 23 23 24 23 19 19 22 24 25 25 24 24 24 23 23 22 21 21 21 21 21 21 21 20 20 20 20 20 20 20 20 20 20
26 25 24 24 24 24 24 23 23 23 23 23 23 24 24 24 19 21 24 24 24 24 24 23 23 22 22 22 22 22 21 21 21 21 21 20 20 20 20 20 20 20 20
25 25 25 24 23 24 23 23 23 23 23 22 23 23 24 24 23 20 19 23 23 24 24 24 23 23 22 22 22 22 21 21 21 21 20 20 20 20 20 20 20 19 19
26 25 25 24 24 24 23 23 23 23 22 22 23 23 22 23 23 22 19 21 22 23 23 24 24 23 23 22 22 22 21 21 21 20 20 19 19 19 19 19 19 19 19
25 25 24 24 24 24 23 23 23 22 22 22 22 23 23 23 24 24 23 21 21 22 23 24 23 23 23 23 22 22 21 21 20 20 20 20 19 19 19 19 19 19 19
26 25 25 24 24 24 23 23 22 22 22 22 22 22 23 23 23 23 24 23 18 20 22 23 24 23 23 23 23 22 22 21 21 20 20 20 20 20 19 19 19 19 19
26 25 25 25 24 24 23 22 22 22 22 22 22 22 22 23 23 23 23 24 22 18 17 23 23 23 22 22 22 22 22 21 21 21 20 20 20 20 20 19 19 19 19
27 26 25 25 24 24 23 23 22 22 22 22 22 22 22 23 22 22 22 23 23 22 18 22 22 22 22 22 22 22 21 21 21 21 21 21 20 20 20 20 20 19 19
27 27 26 25 24 23 23 23 22 22 22 22 22 22 22 22 22 22 22 22 22 22 20 22 22 22 22 22 22 22 21 21 21 21 21 21 21 21 20 20 20 20 20
27 27 26 25 24 24 23 23 22 22 22 21 22 22 21 21 22 22 22 22 21 21 21 20 21 22 22 22 22 21 21 21 21 21 21 21 20 20 20 21 21 20 20
27 26 26 25 24 24 24 23 23 22 22 22 22 22 21 21 21 22 22 21 21 21 21 21 20 21 21 21 21 21 21 20 20 20 20 20 20 20 20 20 21 21 20
26 27 26 25 24 24 23 23 23 22 22 22 21 21 21 21 21 21 21 21 21 21 21 20 20 20 20 20 20 20 20 19 19 19 19 19 19 19 19 19 19 19 19
25 26 25 24 24 23 23 22 23 22 22 22 21 21 21 22 21 21 21 21 21 21 20 20 19 19 19 19 19 19 18 18 18 18 18 18 18 18 18 18 18 19 19
25 25 25 24 23 23 23 23 22 22 21 21 21 21 21 22 21 21 21 21 21 21 20 19 19 18 18 18 18 18 17 16 15 17 17 17 16 17 17 17 18 18 18
24 25 24 24 23 23 22 22 21 21 21 21 21 21 21 21 21 21 21 21 21 21 20 20 20 19 18 19 18 17 17 16 16 17 16 15 17 16 17 17 17 17 17
25 25 24 23 23 23 21 20 21 21 21 21 21 21 21 21 21 21 21 20 20 19 19 19 19 18 18 18 18 17 17 16 16 17 17 14 16 16 17 17 17 17 17
25 24 24 24 22 21 20 20 21 21 21 21 21 21 21 20 21 21 20 20 20 20 19 19 18 18 18 18 18 17 17 15 14 15 16 16 16 16 16 16 16 16 16
25 24 23 22 21 21 20 20 20 21 21 21 20 20 21 20 20 20 19 19 19 19 18 17 17 17 17 17 17 17 17 15 14 13 16 15 16 16 15 16 16 15 15

GFSMA_925_temp_021.txt.gz
Temp
24 24 24 24 24 24 24 24 24 24 24 24 24 24 24 24 23 23 23 22 22 22 21 21 20 20 19 19 19 19 19 19 20 19 19 20 19 19 20 19 19 19 19
24 24 24 24 24 24 24 24 24 23 24 24 25 25 24 24 24 23 23 23 23 22 21 21 20 20 20 20 20 19 19 19 19 20 19 20 19 19 19 19 19 19 19
24 24 24 24 24 24 24 24 23 23 24 24 25 25 25 25 25 23 23 23 23 23 22 21 21 21 20 21 20 20 20 20 20 19 20 20 19 20 19 19 19 19 19
24 24 24 24 24 24 24 24 23 23 24 24 25 25 25 24 24 24 23 23 23 23 22 22 21 21 21 20 20 20 20 20 20 20 20 20 20 20 19 20 19 19 19
24 24 24 24 24 24 24 24 23 23 24 25 24 24 25 24 24 24 24 24 24 23 23 22 22 22 21 20 20 20 20 20 20 20 20 20 20 20 20 20 20 20 20
24 25 25 24 24 24 24 23 23 23 24 24 24 24 24 24 24 24 24 24 24 23 23 22 22 22 21 21 21 21 20 20 20 20 20 20 20 20 20 20 20 20 20
25 25 25 24 24 24 24 23 23 23 23 23 24 23 23 23 23 24 24 24 23 23 23 22 22 21 21 21 21 21 21 21 20 20 20 20 20 20 20 20 20 20 20
25 25 24 24 24 23 23 23 23 23 23 23 23 21 18 22 22 23 23 23 23 23 23 23 22 21 21 21 21 21 21 21 20 20 20 20 20 20 20 20 20 20 20
25 25 24 24 24 23 23 23 23 23 23 22 23 22 17 18 20 22 22 23 23 22 23 23 22 22 21 21 21 22 22 21 21 21 21 20 20 20 19 19 19 20 20
25 25 24 24 24 23 23 23 23 23 23 23 22 22 22 22 18 19 21 22 22 22 22 23 22 22 22 22 22 21 21 21 21 21 21 21 21 21 20 20 20 20 20
26 25 25 24 24 24 23 23 23 23 23 23 23 22 22 21 21 18 17 21 22 22 22 22 22 22 22 22 22 22 21 21 21 21 21 20 20 20 20 20 20 20 20
25 25 25 24 24 23 23 23 23 22 23 23 23 23 23 22 21 20 16 18 19 22 23 22 22 23 23 22 21 21 21 21 21 21 21 20 20 19 19 19 19 19 19
25 25 24 24 23 23 23 23 23 23 22 22 23 22 22 22 22 22 21 18 19 21 22 23 22 22 22 22 22 22 21 21 21 21 21 20 20 20 19 19 19 19 19
26 25 24 24 24 23 23 23 23 23 22 22 22 22 22 22 22 22 23 21 17 18 20 22 22 22 22 22 22 22 21 21 21 21 21 20 20 20 20 20 19 19 19
26 25 25 25 24 23 23 23 23 22 22 22 22 22 22 22 22 22 22 22 22 17 16 22 22 23 23 22 22 22 22 21 21 21 20 20 20 20 19 19 19 19 19
26 25 25 25 24 24 23 23 23 22 22 22 22 21 21 21 21 21 22 22 22 21 17 22 22 22 22 22 22 21 21 21 21 21 20 20 20 20 20 19 19 19 19
25 25 25 25 24 24 23 23 23 23 22 22 22 21 21 21 21 21 21 21 21 21 19 21 21 22 22 22 21 21 21 21 21 21 20 20 20 20 19 19 19 19 19
25 25 25 24 25 24 24 23 23 23 22 22 22 21 21 21 21 21 21 21 21 21 20 20 21 21 21 21 21 21 21 21 20 20 20 20 20 19 19 19 19 19 19
25 25 25 25 25 24 24 23 23 23 23 23 22 22 22 21 21 21 21 21 21 21 20 19 20 20 20 20 21 21 20 20 20 19 19 19 18 18 18 18 18 18 18
25 25 25 25 25 25 24 24 23 23 23 23 22 22 22 21 21 21 21 21 21 20 20 19 19 19 19 19 19 20 20 20 19 19 18 18 18 18 17 17 17 17 18
23 24 24 24 24 24 24 24 23 23 23 23 21 21 22 21 22 21 21 21 21 20 19 18 17 17 18 19 17 17 18 18 18 18 18 18 17 17 17 17 17 17 17
23 23 23 24 24 24 24 25 24 23 23 22 21 22 21 21 21 21 21 21 21 20 19 18 18 18 19 18 17 17 16 16 15 17 17 17 16 17 18 17 17 17 17
22 23 23 23 23 24 25 25 24 23 22 21 21 21 21 21 21 21 21 21 20 20 19 19 19 19 18 18 17 16 16 15 15 17 15 15 16 16 17 17 17 17 16
22 22 22 23 24 25 25 24 24 22 21 21 21 21 21 21 21 21 21 20 20 20 19 19 19 19 18 18 17 16 16 15 15 16 15 13 16 16 17 17 16 16 16
21 21 22 23 24 23 24 24 23 20 19 20 20 20 20 20 20 21 20 20 20 19 19 19 19 19 18 17 16 16 16 15 13 15 16 14 15 16 16 16 16 16 16
22 21 22 23 23 23 24 24 23 20 18 19 21 20 20 20 20 20 20 20 19 19 19 19 19 18 17 17 16 16 16 14 13 13 16 14 15 14 13 15 16 15 15

GFSMA_925_temp_024.txt.gz
Temp
24 24 24 24 24 24 24 24 24 24 24 24 24 24 24 25 24 23 23 22 22 21 21 21 20 20 20 19 20 19 19 19 19 19 19 19 19 19 19 19 19 19 19
24 24 24 24 24 24 24 24 24 24 23 24 24 24 25 25 24 23 23 22 22 22 21 20 21 20 20 20 19 19 19 19 20 20 19 19 19 19 19 19 19 19 19
24 24 24 24 24 24 24 24 24 23 24 24 24 25 25 24 24 23 23 22 22 22 22 21 21 21 20 20 20 20 20 20 20 20 20 20 20 19 19 19 19 19 19
24 24 24 24 24 24 24 23 23 23 23 23 24 25 25 24 24 24 23 23 22 22 22 22 21 21 21 21 20 20 20 20 20 20 20 20 20 20 20 20 20 19 19
24 24 24 24 23 23 23 23 23 23 23 23 24 24 24 25 24 24 24 23 23 23 22 22 22 21 21 20 20 21 21 20 20 20 20 20 20 20 20 20 20 20 20
25 24 24 23 23 23 23 23 22 23 23 23 23 23 23 24 24 24 24 24 23 23 22 22 22 21 21 21 20 21 21 21 20 20 20 20 20 20 20 20 19 20 20
25 24 24 23 23 23 23 23 23 22 23 23 23 23 23 23 23 23 23 23 23 23 23 22 22 21 21 21 21 21 21 21 20 20 21 20 20 20 20 20 19 19 19
25 24 24 24 24 23 23 23 23 23 22 22 22 21 20 22 22 23 23 23 23 23 22 22 22 21 21 21 21 21 21 20 20 20 20 20 20 20 20 20 20 20 19
25 25 24 24 24 23 23 23 23 22 23 22 22 22 19 20 19 22 22 22 22 22 22 22 22 21 21 21 21 21 21 21 21 21 21 21 21 20 20 20 19 19 19
25 25 24 24 24 23 23 23 22 22 23 22 22 21 22 21 20 20 22 21 22 22 22 22 22 22 22 22 22 21 21 21 21 21 21 21 20 20 20 20 20 20 20
25 25 25 24 24 23 24 23 22 22 23 23 23 22 21 20 20 19 20 21 21 22 22 22 22 22 22 22 22 21 21 21 21 21 21 21 20 20 19 19 19 19 19
25 25 25 24 24 23 24 23 22 22 23 22 22 22 23 22 20 20 18 18 20 22 22 22 23 23 22 22 22 22 21 21 21 21 21 20 20 20 19 19 19 19 19
25 25 24 24 24 24 24 23 22 22 22 22 22 22 22 22 22 21 21 18 19 20 21 22 23 23 23 22 22 22 21 21 21 21 20 20 20 20 20 19 19 19 19
26 26 25 25 24 24 24 23 23 23 22 22 22 22 22 22 22 22 22 21 19 18 20 22 22 22 22 22 22 22 21 21 21 21 21 20 20 20 20 19 19 19 19
26 26 25 25 24 24 23 23 23 22 22 22 22 22 22 22 22 22 22 22 22 20 19 22 22 22 22 23 22 21 22 21 21 21 20 20 20 20 19 19 19 19 19
26 26 25 25 25 24 24 23 23 22 22 22 22 21 21 21 21 21 21 22 21 21 20 22 22 22 22 22 22 22 21 21 21 21 20 20 20 20 20 19 19 19 19
26 25 25 25 25 24 24 23 23 22 22 22 21 21 21 21 21 21 21 21 21 21 20 21 21 21 21 22 21 21 20 20 21 20 20 20 20 19 19 19 19 19 19
25 25 25 25 25 25 24 24 23 22 22 22 22 21 21 21 21 21 21 20 21 21 20 20 21 21 21 21 21 21 20 20 20 20 20 19 19 19 19 19 18 18 18
26 25 25 25 25 24 24 24 24 23 23 23 22 22 22 21 21 20 20 20 20 20 20 19 20 20 20 20 20 20 20 20 20 20 19 19 18 18 18 18 18 17 17
25 25 25 25 25 25 24 24 24 23 23 23 22 22 22 21 21 21 20 20 20 20 19 19 18 19 18 19 19 19 19 19 19 19 19 18 18 18 17 17 17 17 17
25 25 25 24 24 25 25 24 24 24 23 23 22 22 22 21 21 21 21 21 20 20 19 18 18 17 17 18 18 18 18 18 18 18 18 18 18 18 18 17 17 17 17
23 23 23 23 23 24 25 25 25 24 23 22 22 22 21 21 21 21 21 20 20 20 19 18 18 17 17 18 18 18 17 16 16 17 17 17 17 17 17 17 17 17 17
22 23 22 22 23 24 24 24 25 24 24 23 22 21 21 21 21 21 21 20 20 19 19 19 18 18 19 19 18 17 17 16 15 16 15 14 16 16 17 17 17 17 17
22 21 22 22 22 23 24 24 24 23 23 23 23 22 22 21 21 21 20 20 20 20 20 20 19 19 19 18 18 17 17 15 15 16 15 13 15 16 16 17 17 17 17
21 21 21 21 22 23 24 24 23 22 21 22 22 21 21 21 21 20 20 19 19 19 19 19 18 18 18 18 17 16 15 14 14 14 15 13 15 15 15 16 16 16 16
21 21 20 22 24 23 24 24 23 22 19 19 19 20 21 20 20 19 19 19 19 19 19 18 18 17 17 17 16 16 16 14 13 14 16 14 15 14 15 15 15 15 15

GFSMA_925_temp_027.txt.gz
Temp
23 24 24 24 23 23 23 23 24 23 23 24 24 24 23 23 22 23 22 22 21 21 20 20 20 20 20 20 20 20 19 19 19 19 19 20 19 20 19 19 19 19 19
23 24 24 24 24 24 23 23 23 23 23 24 24 24 23 23 24 22 23 22 22 21 21 21 20 20 20 20 19 20 19 19 19 19 19 19 20 20 19 20 19 19 19
24 24 24 24 23 23 23 23 23 23 23 23 24 24 24 25 23 22 22 23 23 22 22 21 21 21 20 20 20 20 20 20 20 20 20 19 19 19 20 20 20 20 19
24 24 24 24 22 23 23 22 23 23 23 23 23 23 24 24 24 23 22 22 22 23 22 22 21 21 21 21 20 20 20 20 20 20 20 20 20 20 19 20 20 20 19
24 24 23 23 23 22 22 23 22 22 23 23 23 23 23 24 24 23 23 22 22 22 22 22 21 21 21 20 21 21 20 20 21 20 20 20 20 20 20 20 20 20 20
24 24 23 24 23 22 22 22 23 22 22 22 23 22 22 23 23 23 23 23 22 22 22 21 21 22 21 21 21 21 21 21 21 20 20 20 20 20 20 20 20 20 20
24 24 23 24 23 22 22 23 22 21 22 22 23 23 23 22 22 22 23 23 22 22 22 21 22 22 21 21 21 21 21 20 20 20 20 20 20 20 20 20 20 20 19
25 25 24 23 23 22 23 22 22 22 22 21 23 23 25 24 23 23 22 23 22 22 22 22 21 20 21 21 21 21 22 21 20 20 20 20 20 20 20 20 19 19 19
25 25 25 23 23 23 23 21 22 22 23 21 22 24 25 26 24 23 22 22 22 22 22 21 21 21 21 21 21 21 21 21 21 21 21 21 21 21 20 20 20 20 19
25 25 25 24 24 23 22 22 22 22 23 23 21 21 22 22 25 25 23 22 22 22 22 22 22 21 21 21 21 21 21 21 21 21 21 21 20 20 20 20 20 20 20
25 25 25 24 24 23 23 22 23 22 22 23 23 22 21 21 21 24 26 24 22 22 22 21 22 22 21 21 21 21 22 21 21 21 20 20 20 20 19 19 19 19 19
24 25 24 24 24 23 23 22 23 22 22 22 22 22 23 24 24 24 24 24 24 23 22 22 21 21 21 21 21 22 22 22 21 21 21 20 20 20 19 19 19 19 19
24 23 24 24 23 24 24 23 23 23 22 22 22 22 22 22 22 23 23 24 24 23 23 22 22 21 21 21 21 22 22 22 21 21 21 20 20 20 20 19 19 19 19
24 24 25 25 25 25 24 23 23 22 22 21 22 21 22 22 21 22 23 24 24 23 22 23 22 22 21 21 21 22 21 21 21 21 21 20 20 20 20 20 20 19 19
25 24 25 26 25 25 24 24 22 23 22 22 21 22 21 21 21 21 21 22 24 25 25 23 23 22 22 22 22 22 21 21 21 21 21 21 21 20 20 20 20 20 20
24 24 24 25 25 25 24 23 22 22 22 22 21 21 21 21 21 21 21 21 21 23 25 23 22 22 22 21 22 22 22 22 21 21 21 21 21 20 20 20 20 20 20
25 24 24 24 24 25 24 23 23 22 22 21 21 20 20 20 21 21 21 21 21 21 23 23 21 21 21 21 20 21 21 21 20 21 20 20 20 19 19 19 19 19 19
24 25 24 24 23 23 24 24 22 22 22 21 21 20 20 20 19 19 20 20 21 20 22 22 22 21 20 20 20 20 20 20 20 20 20 20 19 19 19 19 18 18 18
23 24 23 23 23 23 23 24 23 22 22 22 21 20 21 20 19 20 20 20 21 20 20 21 22 21 20 20 20 20 19 19 19 19 19 19 19 19 19 18 18 18 18
23 23 24 24 24 23 22 24 23 22 21 21 21 21 21 20 20 21 19 19 20 20 20 20 21 21 20 20 19 20 20 19 19 19 19 19 18 18 18 18 18 18 18
23 24 23 23 24 23 23 22 23 22 21 21 21 21 21 22 22 22 20 20 20 19 20 20 20 20 20 19 18 20 20 19 18 18 18 18 18 18 18 17 17 17 17
22 22 23 23 23 23 23 23 25 22 21 21 21 21 21 21 22 22 22 21 20 20 20 21 21 21 20 18 18 19 20 19 20 17 17 18 17 18 18 18 17 17 17
22 22 23 23 23 23 24 25 25 23 22 22 22 21 20 20 22 22 21 21 20 20 20 19 20 20 18 19 18 17 18 18 18 18 16 19 18 18 18 18 17 17 17
23 23 22 23 23 23 23 25 26 25 22 22 22 21 20 20 20 22 19 19 19 19 20 19 19 19 20 18 18 18 17 17 17 17 16 17 18 18 18 17 17 16 16
23 23 23 22 22 23 22 24 25 23 22 21 21 21 20 20 21 22 19 19 18 18 19 19 19 19 18 18 18 17 17 17 19 19 16 17 18 17 17 17 17 16 16
23 23 23 22 22 23 22 23 24 23 22 22 21 20 20 20 21 21 19 19 19 19 18 18 18 17 17 17 18 17 18 18 19 19 17 17 18 17 17 17 16 16 16

GFSMA_925_temp_033.txt.gz
Temp
26 26 26 26 26 26 26 25 26 25 25 25 26 26 27 27 27 25 23 23 22 21 21 20 20 20 20 20 19 19 20 20 20 20 19 19 19 19 19 19 19 19 19
26 26 26 26 26 25 24 25 25 25 25 25 26 26 27 27 26 26 24 23 23 22 21 21 20 20 20 20 20 19 19 20 20 20 19 19 20 20 20 19 19 19 19
25 24 26 26 26 25 25 24 25 25 26 26 26 27 26 26 27 26 26 24 23 23 22 21 21 20 20 20 20 20 20 19 20 20 20 20 20 20 20 20 20 19 19
24 25 26 26 25 25 26 26 27 27 27 27 27 27 27 26 26 27 27 24 24 23 22 22 21 21 20 20 20 20 20 20 20 20 20 20 20 20 20 20 20 20 20
24 25 25 25 26 26 26 27 26 27 27 27 27 28 27 27 26 27 27 26 26 24 23 23 23 22 21 20 20 20 20 20 20 20 20 20 20 20 20 20 20 20 20
25 25 26 26 26 26 26 25 25 26 27 27 28 28 27 27 28 27 27 27 26 26 24 23 22 22 21 20 20 21 21 21 20 20 20 20 20 20 20 20 20 19 20
25 25 26 26 26 26 26 25 25 25 27 26 27 27 27 27 27 28 28 28 27 25 26 26 24 22 22 22 22 21 21 20 20 20 20 20 20 20 20 20 20 20 20
25 25 25 25 26 24 25 24 25 25 27 26 27 28 28 28 28 28 28 27 27 27 26 25 25 24 23 22 21 22 21 20 20 20 20 20 20 20 20 20 20 20 19
26 26 25 26 26 26 25 24 25 26 28 26 26 27 29 26 28 27 26 27 26 27 26 25 25 24 24 23 22 22 22 21 21 21 21 21 21 21 21 21 20 20 20
26 26 25 25 25 26 25 25 25 26 26 27 26 27 25 25 24 25 28 27 26 26 26 26 25 24 24 24 23 23 22 22 21 21 21 20 20 20 20 20 20 20 20
26 26 26 25 25 25 27 25 25 24 26 27 27 27 27 27 27 27 24 27 27 27 26 25 26 25 24 25 23 22 22 22 21 21 21 21 20 20 20 20 20 20 19
27 26 26 26 24 25 26 25 25 24 24 26 27 27 28 28 28 28 29 28 27 27 27 26 26 26 26 25 24 23 22 22 22 21 21 21 21 20 20 20 20 20 20
29 28 26 25 25 25 26 25 24 25 24 25 24 27 27 28 28 28 28 29 29 28 27 27 26 26 26 25 25 24 23 22 22 21 21 21 21 20 20 20 20 20 19
29 29 26 26 25 26 25 25 25 25 25 24 24 24 27 27 27 27 27 28 28 28 27 26 27 26 26 25 25 23 23 22 22 22 21 21 21 21 21 20 20 20 20
30 29 27 26 26 26 25 25 25 25 26 24 24 24 24 27 27 27 27 27 28 28 29 25 27 26 26 25 24 23 23 23 22 22 21 21 21 21 21 21 20 20 20
28 29 28 27 26 26 25 25 26 26 25 25 25 25 24 26 27 27 27 27 27 27 28 29 27 27 25 26 24 23 23 23 22 22 22 22 22 22 21 21 21 20 20
28 28 27 27 26 26 25 25 25 27 25 24 25 25 24 24 27 27 27 27 27 27 27 28 28 25 24 23 23 23 23 23 23 23 22 22 22 21 21 21 20 20 19
27 27 27 26 26 26 26 25 25 27 26 25 24 25 25 24 23 25 26 26 26 27 26 26 27 25 24 23 22 22 22 24 24 23 22 21 21 21 21 20 20 19 19
27 27 27 27 26 26 26 26 25 25 26 26 25 24 24 24 24 25 25 26 26 25 25 25 26 26 25 23 23 22 22 22 22 23 22 22 21 21 20 20 19 19 19
26 26 27 26 26 26 26 26 26 25 25 26 25 25 24 24 24 23 24 24 25 25 25 25 25 26 26 25 24 24 23 22 23 23 23 23 22 21 20 20 19 19 19
26 26 26 27 26 26 27 26 26 26 25 25 26 25 25 24 24 23 23 24 24 24 25 26 25 25 26 26 25 24 24 24 23 23 23 23 23 22 21 20 21 20 18
27 26 26 26 27 27 27 27 26 26 26 25 26 26 25 25 24 24 23 24 23 24 24 25 26 26 25 25 25 24 24 23 23 23 23 22 22 21 21 22 21 19 18
27 26 26 26 27 27 27 28 27 26 26 26 26 26 26 26 24 23 23 23 23 23 23 23 23 24 25 24 24 22 22 22 22 22 21 22 22 22 23 21 20 20 19
26 27 26 26 26 27 27 27 28 27 26 26 26 26 26 26 26 23 23 22 22 22 22 22 22 22 22 23 21 21 21 20 20 20 21 21 22 22 22 22 20 20 19
27 26 26 26 26 26 27 26 27 26 26 26 26 26 26 26 26 24 23 23 21 21 21 21 22 22 22 22 21 21 21 20 20 21 21 21 22 22 22 21 21 19 19
27 27 26 26 26 26 26 26 26 26 27 26 26 26 26 25 25 25 23 23 23 21 21 21 20 20 20 21 20 20 21 21 20 21 21 22 22 21 21 21 21 20 20

GFSMA_925_temp_036.txt.gz
Temp
24 25 25 25 26 24 24 24 25 25 25 26 26 27 27 27 25 24 24 23 23 21 20 20 20 20 19 20 20 20 20 20 19 19 19 19 20 20 19 19 19 19 19
25 25 26 26 25 25 25 25 25 25 25 26 26 27 27 27 25 25 24 23 23 22 21 20 20 20 20 20 20 20 19 20 20 20 20 20 19 19 19 19 20 20 19
25 26 26 25 25 25 25 25 26 25 26 26 27 27 27 27 26 24 24 24 23 22 21 21 21 20 20 20 20 20 20 20 20 20 20 20 20 20 19 19 19 19 20
25 25 25 25 26 25 26 26 25 25 27 26 27 27 27 27 26 25 24 24 23 23 22 21 22 21 21 20 20 20 20 20 20 20 20 20 20 20 20 20 20 20 19
25 25 25 25 25 26 25 26 26 26 26 27 27 27 27 27 26 26 26 25 24 24 23 23 22 22 21 20 21 20 20 20 20 20 20 20 20 20 20 20 20 20 20
25 25 25 25 25 26 26 26 26 26 27 27 27 27 27 27 27 27 27 25 24 23 24 23 22 22 22 20 20 20 20 20 20 20 20 20 20 20 20 20 20 20 20
25 25 25 25 25 25 25 25 25 26 26 27 27 27 27 27 27 28 27 26 25 24 24 23 22 23 22 21 21 21 21 20 19 20 20 20 21 21 20 20 20 20 20
26 25 25 25 26 26 25 25 25 25 26 27 26 27 24 26 28 27 27 27 26 26 25 24 24 22 22 21 22 22 21 20 20 21 21 21 21 20 20 20 20 20 19
26 25 25 25 26 25 25 25 25 25 26 27 26 26 23 24 26 27 27 27 27 26 26 25 23 23 22 23 23 22 21 21 21 21 21 21 21 21 21 21 20 20 20
26 25 25 25 25 25 25 25 25 25 26 26 26 26 26 26 24 24 27 26 26 26 26 25 24 24 23 23 23 23 22 22 22 21 21 21 21 21 20 20 20 20 20
26 26 26 25 25 25 25 25 25 26 25 26 27 27 27 26 27 25 24 25 26 26 26 26 24 24 24 23 23 23 23 22 22 21 21 21 21 21 20 20 20 20 20
26 26 26 26 25 25 25 25 25 25 25 26 26 27 27 27 27 27 25 25 26 27 26 26 26 25 25 24 24 23 23 22 22 22 21 21 21 21 20 20 20 20 20
26 26 26 25 25 25 25 25 25 25 25 25 26 26 27 27 28 28 28 27 26 26 27 27 26 26 26 25 24 23 23 23 22 22 21 21 21 21 21 21 20 20 20
28 28 27 26 25 25 25 25 25 25 24 24 24 26 26 27 27 27 27 27 25 27 27 27 27 26 26 26 25 24 23 23 23 22 22 21 21 21 21 21 20 20 20
29 29 28 26 26 25 25 25 25 25 25 24 24 24 26 26 27 27 27 27 27 24 24 26 27 27 26 25 25 24 23 23 22 22 22 21 21 21 21 21 21 20 20
29 29 28 27 26 25 25 25 25 25 25 25 24 24 25 26 26 27 27 27 27 27 24 26 26 26 26 25 25 24 23 23 23 22 22 22 22 21 21 21 20 20 20
28 29 27 26 26 26 25 25 25 26 25 25 25 25 25 25 26 27 27 27 27 27 26 27 27 26 25 25 24 24 23 23 23 23 23 22 22 22 22 21 21 20 20
28 28 28 27 26 26 25 25 25 25 26 25 25 25 25 24 25 26 26 27 27 27 27 26 26 25 25 25 24 23 23 23 23 23 23 22 22 22 22 21 21 20 20
27 27 27 27 27 26 25 25 25 25 26 25 24 24 25 24 24 25 26 26 26 26 26 25 25 25 25 24 23 23 23 22 23 23 23 23 22 22 21 21 21 20 20
26 27 27 27 27 26 26 25 25 25 25 26 25 24 24 24 24 24 25 25 26 25 25 25 25 25 25 24 24 23 22 22 22 23 22 22 22 22 21 22 21 21 20
26 26 27 27 26 26 26 26 26 25 25 25 26 26 25 24 24 24 24 24 25 25 25 24 24 25 25 25 23 24 23 23 23 23 23 22 22 22 22 22 21 21 20
26 26 26 26 27 26 26 26 26 26 25 25 25 25 25 25 24 24 24 24 24 24 24 24 24 24 24 25 25 24 24 23 23 23 23 23 22 22 22 21 21 21 20
26 26 26 26 26 26 27 27 27 26 26 26 25 25 25 25 25 24 24 24 24 24 24 24 24 25 25 25 25 24 24 23 22 22 22 21 21 22 22 21 21 20 19
27 26 26 26 26 26 26 27 27 27 26 26 26 25 25 26 25 25 24 24 23 24 23 24 24 24 25 24 24 24 23 22 21 21 21 20 21 21 22 22 21 20 19
27 27 26 26 26 26 26 26 27 27 26 26 26 26 25 25 25 26 24 22 22 23 23 23 23 23 22 23 22 22 21 21 20 20 20 20 21 21 22 21 21 20 20
27 27 27 26 26 26 26 26 26 26 26 26 26 26 26 25 25 25 25 23 22 22 21 22 22 22 22 22 22 21 21 21 20 20 21 21 21 21 21 21 21 20 20

GFSMA_925_temp_042.txt.gz
Temp
24 24 24 24 24 25 24 24 25 25 25 25 25 25 24 24 23 23 22 21 20 20 20 20 19 19 19 19 19 20 19 19 19 19 19 19 19 19 19 19 19 19 19
24 24 24 25 25 24 24 24 25 25 25 25 25 26 25 24 24 23 23 21 21 21 20 20 19 19 19 19 19 19 20 20 19 19 20 19 19 19 19 19 19 19 19
25 25 24 25 25 24 24 25 25 25 25 26 25 25 24 24 25 24 24 23 22 21 21 20 20 20 19 20 20 19 20 20 20 20 20 20 20 19 19 19 19 19 19
25 25 24 25 25 24 24 24 25 26 26 26 25 25 25 24 25 24 24 24 22 21 21 21 20 20 20 19 19 20 20 20 20 20 20 20 20 20 20 19 19 19 19
25 25 25 25 25 25 25 25 25 25 26 26 26 25 25 25 25 24 24 24 23 22 22 22 21 21 21 20 20 20 20 20 20 20 20 20 20 20 20 20 19 19 19
25 25 25 25 25 25 25 25 25 26 26 26 26 26 25 25 25 25 24 24 23 23 23 22 22 22 21 21 21 20 20 20 20 20 20 20 20 20 19 19 19 19 19
26 25 25 25 25 25 25 25 25 26 26 26 26 26 24 25 25 25 25 24 23 23 23 23 22 22 22 22 21 21 20 20 20 20 20 20 20 20 19 19 19 19 19
26 25 25 25 25 25 25 25 25 25 25 26 25 24 21 24 23 24 25 24 24 23 23 23 22 22 22 22 21 21 21 21 20 20 20 20 20 20 20 20 20 20 20
26 25 25 25 25 25 25 25 25 25 25 25 26 25 20 21 22 23 24 24 24 24 23 23 23 22 22 22 23 22 22 21 22 22 21 21 21 21 20 20 20 20 20
25 25 25 25 25 24 25 25 25 25 26 26 26 25 25 25 20 21 24 24 24 24 24 23 23 23 22 23 23 23 23 22 22 22 22 21 21 20 20 20 20 19 19
25 25 25 25 25 24 25 25 25 25 25 26 26 25 25 25 25 22 20 23 23 24 24 24 24 23 23 23 23 23 23 23 22 22 22 21 21 21 20 20 19 19 19
25 25 25 25 25 25 25 25 24 24 25 25 25 26 26 25 25 24 20 22 24 24 24 24 24 24 24 23 23 23 23 23 23 22 22 22 21 21 20 20 19 19 19
25 25 26 25 25 25 25 25 25 24 25 25 25 25 26 26 26 26 25 23 22 24 24 24 24 24 24 23 23 23 23 23 23 22 22 22 22 21 21 20 20 20 19
26 27 26 25 25 25 25 25 25 25 24 25 25 25 26 26 26 26 26 25 20 22 24 25 25 24 24 24 24 23 23 23 23 22 22 22 22 21 21 21 20 20 20
27 27 27 26 25 25 25 25 25 24 24 24 25 25 26 26 26 26 26 26 25 19 19 25 25 26 25 24 24 24 23 23 23 23 22 22 22 21 21 21 21 20 20
26 27 27 26 26 25 25 25 24 24 24 24 25 25 25 26 26 26 26 26 26 26 20 26 26 26 26 25 25 24 24 24 23 23 22 22 22 21 21 21 21 21 20
26 26 27 27 26 26 25 25 25 25 24 24 24 24 25 26 26 26 26 26 25 26 24 26 26 26 26 25 25 25 24 24 23 23 23 22 22 22 22 22 22 21 20
26 26 26 27 26 26 26 25 25 25 24 24 24 24 24 25 25 26 26 26 26 25 26 25 26 26 25 26 26 25 25 24 23 23 23 23 22 22 22 22 22 21 20
26 26 26 26 26 27 26 26 25 25 25 24 24 24 24 24 24 25 26 26 25 25 25 25 26 25 25 25 25 24 24 24 23 23 23 22 22 22 22 22 22 21 20
25 26 26 27 26 26 26 26 26 25 25 25 25 25 25 24 24 24 25 25 26 25 24 24 24 25 25 24 24 24 23 23 23 23 23 22 22 22 22 22 22 21 21
25 25 26 26 26 26 26 26 26 26 25 25 25 25 25 25 25 25 25 25 25 25 24 23 22 23 24 23 23 23 22 23 23 23 23 23 22 22 22 22 22 22 21
24 24 25 25 25 25 25 26 26 25 25 24 24 25 25 24 24 24 25 25 25 25 23 22 22 21 22 24 24 23 23 21 20 23 22 23 22 22 22 22 22 22 21
23 23 24 24 24 25 25 25 26 25 24 24 24 24 24 24 25 24 24 24 24 24 25 24 23 23 23 23 23 23 23 22 22 23 23 22 23 22 22 22 22 21 21
23 23 23 24 24 24 24 25 25 25 24 24 24 24 23 23 24 24 23 22 23 23 24 24 23 23 23 23 24 24 24 24 23 22 22 21 22 22 22 22 21 21 21
24 23 23 23 24 24 24 24 24 25 23 23 24 23 23 23 23 23 23 22 22 23 23 24 24 24 24 23 23 23 22 20 19 20 21 22 21 22 21 21 21 21 21
24 24 24 24 24 24 24 24 24 24 23 23 24 24 24 23 23 23 23 22 22 22 22 21 22 23 23 23 23 23 22 20 20 19 21 20 20 20 19 20 21 21 20

GFSMA_925_temp_045.txt.gz
Temp
24 24 24 24 24 24 24 24 24 24 25 25 24 24 23 23 23 22 21 20 20 20 19 19 19 20 19 19 19 19 19 19 19 19 19 19 19 19 19 19 19 19 19
24 24 24 24 24 24 24 24 24 24 26 25 25 24 24 23 23 22 21 20 21 20 20 19 19 19 19 19 19 20 19 19 19 19 19 19 19 19 19 19 19 19 19
25 25 25 25 24 24 24 24 24 24 25 25 25 25 24 23 23 23 22 21 20 20 20 19 20 20 19 19 19 19 19 20 20 20 20 20 19 20 19 19 19 19 19
25 25 25 24 24 25 24 25 24 24 24 24 25 24 24 24 23 23 22 22 21 21 21 20 20 20 20 20 20 20 19 20 20 20 19 19 19 19 19 19 19 19 19
25 25 25 24 24 24 25 25 25 25 26 25 25 24 24 24 24 23 23 23 22 22 21 21 21 21 20 20 20 20 20 20 20 20 20 20 19 19 19 19 19 19 19
25 25 25 25 24 25 25 24 25 25 25 25 25 24 24 23 23 23 24 23 23 22 22 22 21 21 21 20 20 20 20 20 20 20 20 19 19 19 19 19 19 19 19
24 25 25 25 24 25 24 25 25 25 25 25 24 24 23 23 23 23 23 24 23 23 22 22 22 22 21 21 21 21 20 20 20 20 20 20 20 19 19 19 19 19 19
24 25 25 25 25 25 25 24 25 25 25 25 24 23 19 23 23 23 23 23 23 23 23 23 22 22 22 22 21 21 21 21 20 20 20 20 20 20 20 20 20 20 20
25 25 25 25 25 25 25 24 24 25 25 24 25 25 19 20 21 23 23 23 23 23 23 23 22 22 22 22 22 22 22 22 21 21 21 21 21 21 20 20 20 20 19
25 25 25 25 25 25 25 24 24 24 25 25 24 24 25 25 19 20 23 23 23 23 23 23 23 23 23 23 23 23 23 22 22 22 22 21 21 20 20 20 20 19 19
25 25 25 25 25 24 24 24 24 24 25 25 25 25 24 24 24 21 19 22 23 23 24 23 23 23 23 23 23 23 23 22 22 22 21 21 21 21 20 20 20 20 19
25 25 25 25 25 25 24 24 24 24 24 25 26 25 25 24 23 23 19 21 22 24 24 24 24 23 23 23 23 23 23 23 22 22 21 21 21 21 21 20 20 20 19
25 25 25 24 24 24 24 24 24 24 24 24 25 25 25 25 25 25 24 22 21 23 24 24 24 24 24 24 23 23 23 23 22 22 22 21 21 21 21 20 20 20 20
25 26 25 25 25 25 24 24 24 24 24 24 24 25 25 26 25 25 25 24 19 20 22 25 25 24 24 24 24 23 23 23 23 23 22 22 21 21 21 20 20 20 20
26 26 26 25 25 25 25 24 24 24 24 24 24 24 25 25 25 25 25 25 25 20 19 25 24 25 25 25 25 24 24 23 23 23 22 22 22 21 21 21 20 20 20
26 26 26 26 26 25 25 24 24 24 24 24 24 24 24 25 25 25 25 25 25 24 19 26 26 26 26 26 25 25 24 24 23 23 23 22 22 22 21 21 20 20 20
25 25 26 26 26 26 25 25 24 24 24 24 24 24 24 25 25 25 25 25 24 24 22 25 25 26 25 25 26 25 25 24 24 23 23 23 22 22 22 21 21 21 20
25 25 26 26 26 26 26 25 25 24 24 24 24 24 24 24 24 24 25 25 24 24 23 23 25 26 26 26 26 25 25 25 25 24 24 23 22 22 22 22 21 21 21
25 25 25 25 26 26 26 25 25 25 25 24 24 24 24 24 24 24 24 24 25 24 24 22 23 25 25 25 25 25 25 24 25 25 24 23 23 22 22 22 22 21 21
25 25 25 25 25 25 26 26 26 25 25 25 25 25 24 24 24 24 24 24 24 24 24 23 23 23 24 24 24 24 24 24 24 24 24 23 23 22 22 22 22 22 21
24 25 25 25 25 25 25 26 26 26 25 25 25 25 25 25 25 25 24 24 24 24 23 23 21 22 22 22 22 24 24 24 24 24 24 23 23 22 22 22 22 22 22
23 23 24 24 24 25 25 26 26 26 25 25 25 25 26 25 25 25 25 25 24 24 22 21 21 21 21 21 22 23 23 21 20 24 23 23 23 23 23 23 22 22 22
22 22 23 23 23 24 24 25 26 25 25 25 25 25 24 25 25 25 25 25 24 24 23 23 21 22 22 22 23 22 22 22 22 23 23 21 22 23 23 23 23 22 22
22 22 22 22 23 23 24 24 25 25 24 24 24 24 24 24 24 24 24 23 24 24 24 23 22 22 22 22 22 23 22 21 21 22 22 22 22 21 23 23 23 22 22
22 22 22 23 22 23 23 24 24 24 23 23 23 23 23 23 23 23 23 22 22 22 22 23 23 24 24 23 22 22 21 20 20 19 20 20 21 21 21 21 22 21 21
23 22 22 22 23 23 23 23 24 23 22 22 22 23 23 23 23 23 22 22 21 22 22 21 21 22 22 23 22 21 21 20 20 20 20 19 20 20 18 19 20 20 19

GFSMA_925_temp_048.txt.gz
Temp
23 24 24 23 23 23 23 24 24 24 24 24 24 23 23 22 21 21 21 20 20 20 19 19 19 19 19 19 19 19 19 19 19 19 19 19 19 20 20 19 19 19 19
24 24 24 24 24 24 23 24 24 24 24 25 24 24 23 22 22 22 21 20 20 20 20 19 19 19 19 19 19 19 19 19 20 20 19 19 19 19 19 19 19 19 19
24 24 24 24 23 24 24 24 24 24 25 25 25 24 23 22 23 22 21 21 20 20 20 19 19 19 19 19 20 20 20 20 20 20 20 19 19 19 19 19 19 19 19
24 24 24 24 24 24 24 24 24 25 25 25 24 24 23 23 23 22 21 21 21 21 20 20 20 20 20 20 20 20 20 20 19 20 19 19 19 19 19 19 19 19 19
24 24 24 24 24 24 24 24 24 24 24 24 24 24 23 23 23 22 22 22 21 21 21 21 20 20 20 20 20 20 20 20 20 19 19 19 19 20 19 19 19 19 19
24 24 24 24 24 25 25 25 24 23 23 24 24 24 23 23 23 22 22 22 22 22 22 22 21 21 21 20 19 20 20 20 20 20 20 20 20 20 19 19 19 19 19
24 24 24 24 24 25 25 24 24 24 24 24 24 23 22 23 23 23 22 22 22 22 22 22 21 22 21 21 20 20 20 20 20 20 20 20 20 20 19 19 20 20 20
24 24 24 24 25 24 25 24 25 24 24 24 24 22 21 22 23 23 22 23 23 23 22 22 22 21 21 21 21 21 20 20 20 20 20 20 21 20 21 21 21 20 20
24 24 24 24 24 24 24 24 24 24 24 24 24 24 21 22 20 22 23 23 23 23 23 22 22 22 22 22 22 22 21 21 21 21 21 21 21 21 21 20 20 20 20
25 24 24 24 24 24 24 24 24 24 24 24 24 24 24 24 21 22 23 24 24 23 24 23 23 23 23 23 23 23 22 22 21 21 21 21 21 21 20 20 20 20 20
25 25 24 24 24 24 24 24 24 24 24 25 25 24 23 23 23 21 22 23 24 24 24 24 23 23 23 23 23 23 23 22 22 21 21 21 21 21 21 20 20 20 20
25 25 25 24 24 24 24 24 24 24 24 24 25 25 25 24 23 22 20 21 22 24 24 24 24 24 24 24 23 23 23 23 22 22 21 21 21 21 20 20 20 20 20
25 25 25 24 24 24 24 24 24 24 24 24 25 25 25 25 25 24 23 21 21 23 24 25 25 25 24 24 24 23 23 23 23 22 22 22 21 21 20 20 19 19 19
26 25 25 25 25 24 24 24 24 24 24 24 24 24 25 25 25 24 24 23 21 21 22 25 25 26 25 25 24 24 23 23 23 23 22 22 21 21 21 20 20 20 20
26 25 25 25 25 24 24 24 24 24 24 24 24 24 24 24 24 24 24 24 24 22 22 26 25 26 26 26 25 25 24 24 23 23 23 22 22 22 21 21 20 20 20
25 25 25 25 25 25 25 24 24 24 24 24 24 23 24 24 24 24 24 24 23 23 22 24 26 26 26 26 26 25 25 25 24 24 23 23 22 22 21 21 21 20 20
25 25 25 25 25 25 25 24 24 24 24 24 24 23 23 24 24 24 24 24 24 23 21 24 25 26 26 26 26 26 26 25 25 25 24 24 23 23 22 22 21 21 21
25 25 25 25 25 26 25 25 24 24 24 24 24 24 24 23 23 24 23 23 23 23 22 22 24 24 25 25 26 26 26 26 26 25 25 24 24 23 23 22 22 21 21
25 25 25 25 25 25 25 25 25 25 25 25 25 24 24 24 24 24 24 23 23 24 23 22 22 23 25 25 25 25 25 25 26 26 25 25 24 24 23 23 22 22 21
25 25 25 25 25 25 25 25 25 25 25 25 25 25 25 24 24 24 24 24 24 23 23 22 21 20 21 23 23 23 23 24 25 25 26 25 25 24 24 23 22 22 22
25 25 25 25 25 25 25 25 25 25 25 25 25 25 25 25 25 25 24 25 24 23 22 21 20 20 21 20 21 23 22 23 23 24 25 25 25 25 24 24 23 22 22
23 24 24 24 24 25 25 25 25 25 25 25 25 25 26 25 25 25 25 25 24 23 21 21 21 21 21 22 22 21 21 21 22 22 22 23 24 24 24 24 24 23 22
22 22 23 23 23 24 25 25 26 25 25 25 25 25 25 25 26 25 26 26 25 25 23 22 21 21 21 22 22 21 20 21 21 22 22 21 22 22 24 24 24 24 23
22 22 22 22 22 23 24 25 25 25 24 24 24 25 25 25 24 25 25 24 24 24 24 24 23 23 22 22 21 21 21 21 20 21 21 21 22 21 22 23 24 24 23
21 21 22 22 22 22 23 23 24 23 23 23 23 23 24 24 24 24 23 22 23 22 22 22 22 23 23 23 22 21 20 19 20 21 21 19 21 21 20 21 22 23 23
22 21 21 21 22 23 23 24 23 22 21 21 22 22 22 23 23 23 22 22 21 22 22 22 22 22 22 23 22 22 20 19 19 19 20 19 19 19 18 19 20 21 20